Location: ????????
(60.4333°N, 46.4710°E)
Time: 12:13:11
(UTC+00:00)

N. Korean satellite - Visible Passes

Search period start: 08 March 2021 00:00
Search period end: 18 March 2021 00:00
Orbit: 451 x 502 km, 97.2° (Epoch: 07 March)

Date Brightness Start Highest point End Pass type
(mag) Time Alt. Az. Time Alt. Az. Time Alt. Az.
08 Mar 9.4 01:33:37 10° NE 01:36:19 20° E 01:39:02 10° SE visible
09 Mar 9.9 01:07:41 10° ENE 01:09:14 12° E 01:10:48 10° ESE visible
09 Mar 6.8 02:39:36 10° NNE 02:43:11 76° ESE 02:46:47 10° SSW visible
10 Mar 8.0 02:12:53 10° NNE 02:16:19 43° E 02:19:46 10° S visible
11 Mar 9.0 01:46:19 10° NE 01:49:22 26° E 01:52:26 10° SSE visible
12 Mar 9.7 01:20:01 10° NE 01:22:19 16° E 01:24:37 10° SE visible
13 Mar 7.4 02:25:43 10° NNE 02:29:16 57° ESE 02:32:51 10° S visible
14 Mar 8.6 01:59:02 10° NNE 02:02:20 33° E 02:05:40 10° SSE visible
15 Mar 9.5 01:32:33 10° NE 01:35:19 20° E 01:38:05 10° SE visible
16 Mar 10.0 01:06:34 10° ENE 01:08:12 12° E 01:09:49 10° ESE visible
17 Mar 8.0 02:11:44 10° NNE 02:15:14 43° E 02:18:45 10° S visible
